sat.trackr.live / text

‹ back to catalog

STARLINK-11535 [DTC]

NORAD 62595 · 2025-008J

PAYLOAD ACTIVE UNKNOWN

§ Identity

Operator
Country
US
Launch date
2025-01-13
Launch site
AFETR
Launch vehicle
Mass (kg)
RCS (m²)

Purposes: comms

External: N2YO · Heavens-Above · Gunter

§ Orbital elements

Epoch: 2026-05-25T00:31:12.984384Z

Period
91.67 min
Inclination
43.0007°
Eccentricity
0.0001853
Mean motion
15.70868509 rev/d
Perigee alt
355.2 km
Apogee alt
357.7 km
Semi-major
6,734.6 km
B*
6.4848e-4
RAAN
25.6674°
Arg perigee
263.2261°
Mean anomaly
96.8396°
Rev number
7,914

§ Raw data

STARLINK-11535 [DTC]1 62595U 25008J   26145.02167806  .00083704  00000+0  64848-3 0  99942 62595  43.0007  25.6674 0001853 263.2261  96.8396 15.70868509 79143

JSON: /api/v1/satellites/62595 · /tle

For live sub-satellite position, see the globe view (requires WebGL).

§ Visibility from observer

Set your observer location to see the next 7 days of passes ≥ 10°. The values pass through the URL so the page stays shareable.

No JS? Fill the form by hand. The geolocation button needs JavaScript.